National Weather Service United States Department of Commerce

Latest Hourly Weather Roundup

TOPSWRTT 000
TTAA00 KICT 182112

Wichita AWIPS Roundup
National Weather Service Wichita KS
400 PM CDT TUE SEP 18 2018

....Central Kansas....
  
CITY           SKY/WX    TMP DP  RH WIND       PRES   REMARKS
RUSSELL        SUNNY     94  67  41 SW16G28   29.82F HX  97           
SALINA         SUNNY     94  69  44 S14       29.83F HX  99           
GREAT BEND     MOSUNNY   93  67  42 SW15      29.85S HX  96           
ELLSWORTH      SUNNY     95  63  34 S14       29.83F HX  96           
LYONS          FAIR      94  68  42 S13       29.85F HX  97           
MCPHERSON      NOT AVBL                                               
HAYS           SUNNY     94  67  41 S17       29.83F HX  97           

....South Central Kansas....
  
CITY           SKY/WX    TMP DP  RH WIND       PRES   REMARKS
HUTCHINSON     SUNNY     93  68  43 S16G24    29.85F HX  97           
NEWTON         SUNNY     91  69  48 S14       29.88F HX  96           
KINGMAN        SUNNY     93  66  40 S12       29.86F HX  96           
WICHITA (ICT)  MOSUNNY   93  67  42 S16G22    29.86F HX  96           
JABARA ARPT    SUNNY     91  66  43 S18G24    29.87F HX  93           
BEECH ARPT     FAIR      91  66  42 S13G18    29.88F HX  94           
MCCONNELL AFB  NOT AVBL                                               
BENTON         FAIR      91  67  44 S10G24    29.88F HX  94           
EL DORADO      FAIR      91  66  43 S12       29.88F HX  94           
AUGUSTA        FAIR      90  66  45 S14       29.88F HX  92           
HARPER           N/A     91  68  46 MISG      29.90S HX  95           
WELLINGTON     MOSUNNY   93  66  40 S14       29.86F HX  96           
WINFIELD       MOSUNNY   90  69  50 S10       29.90F HX  94           
 
....Southeast Kansas....
  
CITY           SKY/WX    TMP DP  RH WIND       PRES   REMARKS
EUREKA         MOSUNNY   93  70  46 S14       29.89F HX  99           
IOLA           FAIR      89  68  49 S14       29.91F HX  92           
CHANUTE        SUNNY     91  72  53 S12       29.90F HX  98           
PARSONS        MOSUNNY   93  69  45 SW8       29.91F HX  98           
COFFEYVILLE    PTSUNNY   94  69  44 S12       29.87F HX  99           
INDEPENDENCE   PTSUNNY  N/A N/A N/A SW10      29.90F                  
FORT SCOTT     MOSUNNY   91  72  52 S8        29.89F HX  98           
PITTSBURG      SUNNY     91  71  50 S7        29.91F HX  97           

....Western Kansas....
  
CITY           SKY/WX    TMP DP  RH WIND       PRES   REMARKS
GOODLAND       SUNNY     94  56  27 SW13G20   29.87F HX  92           
HILL CITY      SUNNY     95  62  33 S12       29.83F HX  96           
LIBERAL        SUNNY     91  64  40 S16G26    29.88F HX  92           
GARDEN CITY    SUNNY     92  59  33 S21G33    29.86F HX  91           
DODGE CITY     SUNNY     91  63  39 S18G26    29.87F HX  92           
PRATT          SUNNY     93  63  36 S16       29.87F HX  94           
MEDICINE LODGE   N/A     94  66  39 S12G24    29.85F HX  97           

....Northeast Kansas....
  
CITY           SKY/WX    TMP DP  RH WIND       PRES   REMARKS
CONCORDIA      SUNNY     92  68  45 S12G21    29.83F HX  96           
TOPEKA         MOSUNNY   95  68  41 SW12G22   29.85F HX  99           
MANHATTAN      MOSUNNY   93  70  46 S10       29.84F HX  99           
LAWRENCE       LGT RAIN  92  68  45 S10G21    29.86F HX  96           
OLATHE         MOSUNNY   90  68  48 SW12      29.89F HX  94           
EMPORIA        PTSUNNY   90  67  46 S13G22    29.88F HX  93           

....Oklahoma....
  
CITY           SKY/WX    TMP DP  RH WIND       PRES   REMARKS
GAGE           SUNNY     93  62  35 S16G25    29.88F HX  93           
PONCA CITY     MOSUNNY   93  68  43 S10       29.88F HX  97           
BARTLESVILLE   MOSUNNY   92  67  43 SW7       29.89F HX  95           
TULSA          PTSUNNY   94  68  42 SW8G20    29.87F HX  98           
OKLAHOMA CITY  MOSUNNY   88  68  51 SW8       29.91F HX  91           

Note: "fair" indicates few or no clouds below 12,000 feet with no
significant weather and/or obstructions to visibility.